Montgomery, AL

4:35 PM CST on January 22, 2017 (GMT -0600)
Montgomery Regional

Weather History for KMGM - June, 2013

Change the Weather History Date:

Wednesday, June 19, 2013

  Actual Average Record
Temperature  
Mean Temperature 80 °F 80 °F  
Max Temperature 88 °F 90 °F 103 °F (1933)
Min Temperature 71 °F 69 °F 55 °F (1965)
Cooling Degree Days 15 15  
Month to date cooling degree days 309 249  
Year to date cooling degree days 668 588  
Since 1 June cooling degree days 309 249  
Growing Degree Days 30 (Base 50)    
Moisture  
Dew Point 70 °F    
Average Humidity 72    
Maximum Humidity 93    
Minimum Humidity 51    
Precipitation  
Precipitation 0.11 in 0.14 in 3.52 in (1989)
Month to date precipitation 3.07 2.31  
Year to date precipitation 28.78 25.75  
Sea Level Pressure  
Sea Level Pressure 29.98 in    
Wind  
Wind Speed 3 mph (WSW)    
Max Wind Speed 10 mph    
Max Gust Speed 15 mph    
Visibility 10 miles    
Events Rain    
T = Trace of Precipitation, MM = Missing Value Source: NWS Daily Summary

Daily Weather History Graph

Daily Weather History Graph

Search for Another Location

Airport or City:

Trip Planner

Search our weather history database for the weather conditions in past years. The results will help you decide how hot, cold, wet, or windy it might be!

Date:

Astronomy

Jun. 19, 2013 Rise Set
Actual Time 5:38 AM CDT 7:55 PM CDT
Civil Twilight 5:10 AM CDT 8:23 PM CDT
Nautical Twilight 4:35 AM CDT 8:58 PM CDT
Astronomical Twilight 3:57 AM CDT 9:36 PM CDT
Moon 3:56 PM CDT (6/19) 2:12 AM CDT (6/19)
Length of Visible Light 15h 13m
Length of Day
14h 16m
Waxing Gibbous, 80% of the Moon is Illuminated
Jun 19
Waxing Gibbous
Jun 23
Full
Jun 29
Last Quarter
Jul 8
New
Jul 15
First Quarter

Hourly Weather History & Observations

Time (CDT) Temp. Heat Index Dew Point Humidity Pressure Visibility Wind Dir Wind Speed Gust Speed Precip Events Conditions
12:53 AM 73.9 °F - 71.1 °F 91% 29.96 in 10.0 mi SW 3.5 mph - N/A   Overcast
1:53 AM 73.9 °F - 71.1 °F 91% 29.95 in 10.0 mi SSW 4.6 mph - N/A   Overcast
2:53 AM 73.9 °F - 71.1 °F 91% 29.94 in 10.0 mi Calm Calm - N/A   Mostly Cloudy
3:48 AM 73.4 °F - 71.6 °F 94% 29.94 in 10.0 mi WSW 3.5 mph - N/A   Overcast
3:53 AM 73.9 °F - 71.1 °F 91% 29.94 in 10.0 mi Calm Calm - N/A   Overcast
4:02 AM 73.4 °F - 71.6 °F 94% 29.94 in 9.0 mi Calm Calm - 0.00 in Rain Light Rain
4:49 AM 73.4 °F - 71.6 °F 94% 29.95 in 7.0 mi SW 4.6 mph - 0.05 in Rain Light Rain
4:53 AM 73.9 °F - 71.1 °F 91% 29.94 in 7.0 mi SW 4.6 mph - 0.05 in Rain Light Rain
5:53 AM 73.9 °F - 71.1 °F 91% 29.96 in 7.0 mi SW 3.5 mph - 0.03 in Rain Light Rain
6:22 AM 73.4 °F - 71.6 °F 94% 29.97 in 5.0 mi Calm Calm - 0.02 in Rain Light Rain
6:49 AM 73.4 °F - 71.6 °F 94% 29.98 in 9.0 mi Calm Calm - 0.03 in   Mostly Cloudy
6:53 AM 73.9 °F - 71.1 °F 91% 29.98 in 9.0 mi West 3.5 mph - 0.03 in   Mostly Cloudy
7:53 AM 75.0 °F - 71.1 °F 87% 29.99 in 10.0 mi West 4.6 mph - N/A   Overcast
8:53 AM 75.9 °F - 72.0 °F 87% 30.01 in 10.0 mi SW 3.5 mph - N/A   Overcast
9:53 AM 77.0 °F - 73.0 °F 88% 30.01 in 10.0 mi Calm Calm - N/A   Overcast
10:53 AM 80.1 °F 84.2 °F 73.0 °F 79% 30.02 in 10.0 mi SW 4.6 mph - N/A   Mostly Cloudy
11:17 AM 80.6 °F 84.6 °F 71.6 °F 74% 30.02 in 10.0 mi SW 3.5 mph - N/A   Overcast
11:53 AM 81.0 °F 85.2 °F 72.0 °F 74% 30.02 in 10.0 mi SW 5.8 mph - N/A   Overcast
11:55 AM 80.6 °F 84.6 °F 71.6 °F 74% 30.03 in 10.0 mi WSW 4.6 mph - N/A   Overcast
12:53 PM 82.9 °F 87.5 °F 71.1 °F 67% 30.01 in 10.0 mi WNW 5.8 mph - N/A   Overcast
1:53 PM 84.0 °F 87.8 °F 69.1 °F 61% 29.99 in 10.0 mi NW 6.9 mph - N/A   Clear
2:53 PM 84.9 °F 89.4 °F 70.0 °F 61% 29.98 in 10.0 mi NW 9.2 mph - N/A   Partly Cloudy
3:53 PM 87.1 °F 92.0 °F 70.0 °F 57% 29.97 in 10.0 mi North 5.8 mph - N/A   Scattered Clouds
4:53 PM 87.1 °F 90.6 °F 68.0 °F 53% 29.97 in 10.0 mi WNW 6.9 mph - N/A   Partly Cloudy
5:53 PM 86.0 °F 90.1 °F 69.1 °F 57% 29.97 in 10.0 mi North 3.5 mph - N/A   Mostly Cloudy
6:53 PM 86.0 °F 88.8 °F 66.9 °F 53% 29.99 in 10.0 mi NNE 4.6 mph - N/A   Clear
7:53 PM 82.0 °F 84.5 °F 66.9 °F 60% 29.99 in 10.0 mi Calm Calm - N/A   Clear
8:53 PM 79.0 °F - 68.0 °F 69% 30.01 in 10.0 mi Calm Calm - N/A   Clear
9:53 PM 75.0 °F - 68.0 °F 79% 30.02 in 10.0 mi Calm Calm - N/A   Clear
10:53 PM 73.0 °F - 68.0 °F 84% 30.03 in 10.0 mi Calm Calm - N/A   Clear
11:53 PM 72.0 °F - 68.0 °F 87% 30.04 in 9.0 mi Calm Calm - N/A   Partly Cloudy